Weather History for Akron Canton, OH

Change the Weather History Date:

Friday, March 23, 2012

  Actual Average Record
Temperature  
Mean Temperature 71 °F 40 °F  
Max Temperature 82 °F 50 °F 82 °F (2012)
Min Temperature 59 °F 31 °F 3 °F (1906)
Degree Days  
Heating Degree Days 0 25  
Month to date heating degree days 312 665  
Since 1 July heating degree days 4149 5209  
Cooling Degree Days 6 0  
Month to date cooling degree days 22 0  
Year to date cooling degree days 22 0  
Growing Degree Days 20 (Base 50)    
Moisture  
Dew Point 49 °F    
Average Humidity 59    
Maximum Humidity 90    
Minimum Humidity 28    
Precipitation  
Precipitation 0.33 in 0.11 in 0.93 in (1965)
Month to date precipitation 2.63 2.13  
Year to date precipitation 8.46 7.05  
Snow  
Snow 0.00 in 0.20 in - ()
Month to date snowfall 3.5 6.7  
Since 1 July snowfall 30.9 43.2  
Snow Depth 0.00 in    
Sea Level Pressure  
Sea Level Pressure 29.98 in    
Wind  
Wind Speed 6 mph (SE)    
Max Wind Speed 24 mph    
Max Gust Speed 30 mph    
Visibility 9 miles    
Events Rain , Thunderstorm    
T = Trace of Precipitation, MM = Missing Value Source: NWS Daily Summary

Daily Weather History Graph

Daily Weather History Graph

Search for Another Location

Airport:

Trip Planner

Search our weather history database for the weather conditions in past years. The results will help you decide how hot, cold, wet, or windy it might be!

Date:

Astronomy

Mar. 23, 2012 Rise Set
Actual Time 7:23 AM EDT 7:41 PM EDT
Civil Twilight 6:55 AM EDT 8:09 PM EDT
Nautical Twilight 6:23 AM EDT 8:41 PM EDT
Astronomical Twilight 5:50 AM EDT 9:14 PM EDT
Moon 7:30 AM EDT (3/23) 9:03 PM EDT (3/23)
Length of Visible Light 13h 13m
Length of Day
12h 18m
New Moon, 1% of the Moon is Illuminated
Mar 23
New Moon
Mar 30
First Quarter
Apr 6
Full
Apr 13
Last Quarter
Apr 21
New

Hourly Weather History & Observations

Time (EDT) Temp. Dew Point Humidity Pressure Visibility Wind Dir Wind Speed Gust Speed Precip Events Conditions
12:51 AM 62.1 °F 46.9 °F 58% 30.09 in 10.0 mi ENE 5.8 mph - N/A   Partly Cloudy
1:51 AM 64.9 °F 46.9 °F 52% 30.07 in 10.0 mi East 6.9 mph - N/A   Partly Cloudy
2:51 AM 63.0 °F 46.9 °F 56% 30.06 in 10.0 mi ESE 4.6 mph - N/A   Partly Cloudy
3:51 AM 62.1 °F 46.9 °F 58% 30.05 in 10.0 mi ESE 6.9 mph - N/A   Scattered Clouds
4:51 AM 61.0 °F 46.9 °F 60% 30.05 in 10.0 mi SE 4.6 mph - N/A   Scattered Clouds
5:51 AM 61.0 °F 46.9 °F 60% 30.05 in 10.0 mi SSE 3.5 mph - N/A   Scattered Clouds
6:51 AM 61.0 °F 46.0 °F 58% 30.05 in 10.0 mi SE 5.8 mph - N/A   Scattered Clouds
7:51 AM 59.0 °F 46.9 °F 64% 30.06 in 10.0 mi SE 5.8 mph - N/A   Scattered Clouds
8:51 AM 64.0 °F 46.9 °F 54% 30.06 in 10.0 mi SE 6.9 mph - N/A   Scattered Clouds
9:51 AM 70.0 °F 50.0 °F 49% 30.05 in 10.0 mi SE 6.9 mph - N/A   Mostly Cloudy
10:51 AM 75.9 °F 48.9 °F 38% 30.04 in 10.0 mi SSE 6.9 mph - N/A   Mostly Cloudy
11:51 AM 77.0 °F 46.0 °F 33% 30.03 in 10.0 mi SSE 6.9 mph - N/A   Mostly Cloudy
12:51 PM 79.0 °F 45.0 °F 30% 30.01 in 10.0 mi SE 9.2 mph - N/A   Mostly Cloudy
1:51 PM 81.0 °F 45.0 °F 28% 29.97 in 10.0 mi Variable 5.8 mph 16.1 mph N/A   Mostly Cloudy
2:51 PM 81.0 °F 44.1 °F 27% 29.93 in 10.0 mi ESE 4.6 mph - N/A   Mostly Cloudy
3:51 PM 81.0 °F 45.0 °F 28% 29.91 in 10.0 mi Variable 5.8 mph - N/A   Mostly Cloudy
4:51 PM 80.1 °F 44.1 °F 28% 29.87 in 10.0 mi ESE 4.6 mph - N/A   Mostly Cloudy
5:51 PM 78.1 °F 44.1 °F 30% 29.87 in 10.0 mi East 4.6 mph - N/A   Overcast
6:51 PM 75.0 °F 50.0 °F 41% 29.87 in 10.0 mi South 3.5 mph - 0.00 in Rain Light Rain
7:51 PM 72.0 °F 50.0 °F 46% 29.87 in 10.0 mi Calm Calm - 0.00 in   Overcast
8:37 PM 64.4 °F 55.4 °F 73% 29.93 in 9.0 mi West 16.1 mph 27.6 mph 0.00 in Rain , Thunderstorm Light Thunderstorms and Rain
8:51 PM 63.0 °F 57.0 °F 81% 29.93 in 6.0 mi WSW 10.4 mph - 0.02 in Rain Light Rain
9:51 PM 62.1 °F 57.9 °F 86% 29.93 in 3.0 mi Calm Calm - 0.16 in Rain Light Rain
10:51 PM 62.1 °F 57.9 °F 86% 29.90 in 7.0 mi SE 6.9 mph - 0.12 in Rain Light Rain
11:51 PM 61.0 °F 57.9 °F 90% 29.88 in 10.0 mi ESE 4.6 mph - 0.02 in Rain Light Rain